Starlink 31431

operational
NORAD ID: 59002 Int'l Des: 2024-036 Owner: SPXS Country: US Constellation: starlink
LEOCIRCULAR

About Starlink 31431

Description loading...

Live Position

Loading 3D Globe...

Upcoming Passes

Altitude History

Altitude vs Time

uPlot chart will show altitude changes over time

Two-Line Element Set

1 59002U 24036E 25257.49314403 -.00000059 00000-0 10121-4 0 9994
2 59002 53.1606 176.7674 0000888 95.0911 265.0191 15.30190624 88344
Epoch: Sep 14, 2025 • Age: 18 hours

Current Status

Altitude 493.5 km
Velocity 7.62 km/s
Sub-Earth Point -50.95°S, 17.26°E
Launch Date Feb 23, 2024
Age 1.5 years
Type internet

Technical Details

Classification Payload
Mass 730.00 kg
Dry Mass 700.00 kg
Total Mass 730.00 kg
Length 0.30 m
Diameter 4.10 m
Span 29.00 m
Shape Box + pan
Manufacturer SPXS
Bus Type Starlink V2M
Phase Status In Orbit
Owner/State SPXS/US

Large Constellations

Loading constellations...